Погода Лодейное Поле

Погода Лодейное Поле : погода сейчас, прогноз погоды и архив. Всё, что Вы хотите узнать о погоде Лодейное Поле!

Хотите узнать прогноз погоды Лодейное Поле? Тогда Вам сюда: Погода Лодейное Поле

Поиск расширенной информации на нашем сайте:

Другие новости

Новости СМИ2

Главная страница сайта

Новости сайта

03.07.2017

Напоминаем, что на нашем специализированном сайте Метеоцентр.Азия вы можете получить высокодетализированные автоматические прогнозы погоды по пунктам России, СНГ и мира в авиационном формате (включающие направление и скорость ветра, видимость, явления погоды, количество и форму облачности, нижнюю и верхнюю границу облачности).


Погода Лодейное Поле - сегодня

Время (UTC), дата Ветер
(°,м/с) 
Видим.   Явления Облачность Т
(°С)
Тd
(°С)
f(%) Тe
(°С)
Pmin
(гПа)
dP
(гПа)
Po
(мм)
O2
(г/м3)
Тmin Tmax R s Состояние
почвы
09 13.06.18 320 (СЗ) 10 км    9/6 600 м средняя 
[Sc|Ac trans]
+11.9 +3.2 55 +13  1007.1  1.8  753  290           
12 13.06.18 260 (З) 10 км    8/6 600 м средняя 
[Cu Sc|Ac trans]
+14.5 +4.5 51 +14  1007.7  0.7  754  288           
15 13.06.18 240 (ЮЗ) 10 км    6/6 600 м 
[Sc]
+15.1 +3.7 46 +15  1009  1.3  755  288           
21 13.06.18 тихо ()   10 км    ясно 
+3.5 +2.6 94 +4  1012.3  1.8  757  301           
00 14.06.18 тихо ()   10 км    9/0 средняя 
[Ac trans]
+2.5 +2.1 97 +3  1013.6  1.3  758  302           
09 14.06.18 330 (СЗ) 10 км    8/6 600 м средняя 
[Cu med, cong|Ac trans]
+17.3 +2.7 38 +19  1016.1  0.1  760  288           
12 14.06.18 280 (З) 10 км    8/4 600 м верхняя 
[Cu med, cong|Cc]
+19.1 +2.1 32 +20  1015.7  -0.4  760  286           
15 14.06.18 260 (З) 10 км    3/3 600 м 
[Cu med, cong]
+19.6 +0.5 28 +21  1015.4  -0.3  759  285      0.0     
21 14.06.18 тихо ()   10 км    9/0 средняя 
[Ac trans]
+10 +5.6 74 +10  1016.7  760  295           
00 15.06.18 тихо ()   10 км    9/0 средняя 
[Ac trans]
+6.7 +5.3 91 +7  1016.6  0.1  760  298           
09 15.06.18 210 (ЮЗ) 10 км    9/5 600 м верхняя 
[Cu med, cong|Cc]
+21.6 +9.9 47 +22  1016.8  -0.3  761  282           
21 15.06.18 190 (Ю) 10 км    8/4 600 м средняя 
[Sc|Ac trans]
+17.7 +11.4 67 +22  1017  0.8  761  286           
09 16.06.18 170 (Ю) 10 км    8/1 600 м средняя, верхняя 
[Cu hum|Ac trans|Ci sp]
+21.9 +11.7 52 +25  1019.8  0.6  763  282           
12 16.06.18 310 (СЗ) 10 км    8/4 600 м верхняя 
[Cu med, cong|Ci sp]
+26 +8.6 33 +26  1019.1  -0.7  762  279           
15 16.06.18 270 (З) 10 км    9/4 600 м верхняя 
[Cu med, cong|Cc]
+25.8 +8.4 33 +26  1018.3  -0.8  762  279           
21 16.06.18 тихо ()   10 км    8/0 верхняя 
[Ci sp]
+12.5 +10.1 85 +13  1018.9  0.5  762  292           
00 17.06.18 тихо ()   10 км    8/0 средняя, верхняя 
[Ac trans|Ci sp]
+10.6 +9.5 93 +11  1019.4  0.4  762  294           
09 17.06.18 210 (ЮЗ) 10 км    8/4 600 м средняя, верхняя 
[Cu med, cong|Ac trans|Ci sp]
+26.2 +7.5 30 +26  1019  -0.4  762  279           
12 17.06.18 230 (ЮЗ) 10 км    8/3 600 м средняя, верхняя 
[Cu med, cong|Ac trans|Ci sp]
+24.7 +10.7 41 +26  1018.7  -0.3  762  280           
15 17.06.18 220 (ЮЗ) 10 км    8/0 средняя, верхняя 
[Ac trans|Ci sp]
+24.1 +10.4 42 +25  1018.1  -0.6  762  280           
21 17.06.18 тихо ()   10 км    10/10 420 м 
[Sc]
+18.1 +11.9 67 +22  1017.6  0.1  761  285           
00 18.06.18 тихо ()   н/о    н/о 
+16.6 +11.9 74 +20  1017.3  -0.3  761  287           
09 18.06.18 260 (З) 10 км    9/5 600 м кучево-дожд., средняя 
[Cb cap|Ac trans]
+24.6 +12.9 48 +30  1014.2  -1  759  278           
21 18.06.18 170 (Ю) 10 км    9/8 500 м средняя 
[Sc|Ac trans]
+18.4 +16.2 87 +31  1010.5  -0.9  756  282           
03 19.06.18 200 (Ю) 10 км  {ливн. осадки}  9/8 630 м кучево-дожд., средняя 
[Cb cap|Ac trans]
+14.6 +13.4 93 +22  1010.4  -0.3  756  286  +14.3       
Время (UTC), дата Ветер
(°,м/с) 
Видим.   Явления Облачность Т
(°С)
Тd
(°С)
f(%) Тe
(°С)
Pmin
(гПа)
dP
(гПа)
Po
(мм)
O2
(г/м3)
Тmin Tmax R s Состояние
почвы

Для получения пояснительной информации подведите курсор к названию столбца.

ПОГОДА Лодейное Поле - архив

Всё, что Вы хотите узнать о погоде Лодейное Поле - удобно и подробно!

Выберите нужную дату (начиная с 1 января 2015* года) и нажмите кнопку "Найти".
Будут отображены архивные сводки погоды по пункту Лодейное Поле, начиная с указанной даты.


Отображать данные в формате CSV (для использования в таблицах Excel)


Внимание! Наш архив погоды предназначен исключительно для личного некоммерческого использования в познавательных целях. Если Вам необходимы официальные справки о состоянии погоды (для производственных, юридических, коммерческих и т.п. целей), обращайтесь в органы Росгидромета.

*Примечание: данная дата относится к архиву по метеостанциям СССР (Россия, СНГ, Балтия).
Архив по метеостанциям Зарубежной Европы и Азии (кроме Китая) хранится 10 дней, по другим регионам земного шара (Китай, Африка, Америка, Австралия, Океания) - 1 день.

Лодейное Поле - район местоположения метеостанции


Название, широта, долгота, высота метеостанции:
Лодейное Поле 60.7°ш. 33.6°д. 23 м над ур. моря [Российская Федерация]

Дополнительная информация

В oтличие oт бoльшинства пoгoдных сайтoв мы публикуем пoдрoбную метеoинфoрмацию в детальнoм прoфессиoнальнoм фoрмате.

Характеристики температуры и влажнoсти вoздуха измеряются на высoте 2 м в тени вдали oт зданий и деревьев.
Скoрoсть ветра измеряется на высoте 10 м (на урoвне рoста челoвека скoрoсть ветра ниже в 1.5-2 раза). Если метеoстанция нахoдится в гoрoде или в лесу, тo скoрoсть ветра занижена на 2-4 м/с пo сравнению с oткрытым местoм. Скoрoсть ветра над акватoриями крупных рек и oзёр, а также на вершинах хoлмoв на 2-5 м/с выше, чем в oбычных услoвиях.
Атмoсфернoе давление в разных тoчках местнoсти мoжет значительнo oтличаться oт давления на метеoстанции, в зависимoсти oт услoвий рельефа (при пoдъёме на 10 м давление пoнижается примернo на 1 мм рт.ст.).